Simultaneous Nadir Overpasses (SNOs) Predictions

Prediction of SNOs between LANDSAT-8 and METOP-B Satellite Orbit:

Table of predicted SNOs for the next 14.0 days since TLE Epoch: 2/23/2019
Index Date (LANDSAT-8) Time (LANDSAT-8) Lat,Lon (LANDSAT-8) SZA (LANDSAT-8 ) Date (METOP-B) Time (METOP-B) Lat,Lon (METOP-B) SZA (METOP-B ) Distance(km) Time Diff (sec)
1 02/25/2019 01:32:41 81.10,-163.98 91.97 02/25/2019 01:32:00 81.10,-163.87 91.97 1.83 41
2 02/25/2019 02:22:07 -81.12, 3.99 88.00 02/25/2019 02:22:40 -81.11, 3.85 88.01 2.54 33
3 02/27/2019 21:06:56 81.08, -97.78 90.90 02/27/2019 21:06:25 81.08, -97.80 90.89 0.64 31
4 02/27/2019 21:56:22 -81.10, 70.21 89.07 02/27/2019 21:57:04 -81.11, 70.29 89.04 1.77 42
5 03/02/2019 16:41:10 81.09, -31.26 89.86 03/02/2019 16:40:49 81.09, -31.37 89.84 1.98 21
6 03/02/2019 17:30:36 -81.11, 136.74 90.11 03/02/2019 17:31:28 -81.11, 136.73 90.09 0.39 52
7 03/05/2019 12:15:23 81.09, 35.22 88.80 03/05/2019 12:15:12 81.09, 35.04 88.78 3.08 11
8 03/05/2019 13:04:49 -81.11,-156.76 91.16 03/05/2019 13:05:51 -81.11,-156.86 91.15 1.63 62
9 03/08/2019 07:00:58 -79.63, -80.70 94.72 03/08/2019 06:59:44 -80.04, -82.34 94.46 56.00 74
10 03/08/2019 07:49:37 81.09, 101.66 87.73 03/08/2019 07:49:35 81.10, 101.82 87.75 2.99 2




NCC Satellite Simultaneous Nadir Overpasses (SNOs) Prediction Service
